Location: Fontevrault
(47.1823°N, 0.0493°E)
Time: 08:35:14
(UTC+00:00)

Cosmos 1544 Rocket - Pass Details

Date: 16 June 2021
Orbit: 603 x 631 km, 82.5° (Epoch: 04 August)

Event Time Altitude Azimuth Distance (km) Brightness Sun altitude
Rises 21:58:48 0° 347° (NNW) 2,937 8.6 -14.3°
Reaches altitude 10° 22:01:04 10° 344° (NNW) 2,023 7.5 -14.5°
Maximum altitude 22:05:29 61° 265° (W) 716 3.9 -14.8°
Enters shadow 22:08:31 19° 189° (S) 1,480 5.0 -15.0°
